Location: R�o Tuerlos
(40.6704°N, 4.4622°W)
Time: 11:14:00
(UTC+00:00)

Daily predictions for brighter satellites

Satellite Brightness Start Highest point End
(mag) Time Altitude Azimuth Time Altitude Azimuth Time Altitude Azimuth
Cosmos 2082 Rocket 3.2 17:13:42 10° SSE 17:18:20 26° ESE 17:22:58 10° NE
USA 229 DEB 4.1 17:13:37 10° NNW 17:20:49 52° NE 17:28:24 10° SE
NOAA 6 4.3 17:15:55 10° SE 17:20:50 48° ENE 17:25:45 10° N
USA 229 4.1 17:13:43 10° NNW 17:20:54 52° NE 17:28:28 10° SE
Meteor PRIRODA 3.7 17:21:38 10° SSE 17:25:15 84° WSW 17:28:54 10° NNW
Cosmos 990 Rocket 4.0 17:20:12 10° NNW 17:25:21 61° ENE 17:30:26 10° SSE
CORIOLIS 4.4 17:20:22 10° SE 17:25:32 49° ENE 17:30:44 10° N
Cosmos 2026 Rocket 4.4 17:20:12 10° N 17:25:50 37° ENE 17:31:24 10° SE
Cosmos 1408 Rocket 3.8 17:21:41 10° N 17:26:04 78° W 17:30:26 10° S
USA 276 2.3 17:25:48 10° NW 17:28:51 47° NNE 17:31:52 10° ESE
Okean O Rocket 3.2 17:26:23 10° E 17:28:58 15° ENE 17:31:34 10° NNE
Cosmos 1602 4.3 17:28:01 10° N 17:31:35 35° ENE 17:35:08 10° SE
Cosmos 1743 Rocket 3.5 17:29:29 10° N 17:33:47 66° E 17:38:05 10° SSE
Cosmos 1782 3.5 17:30:26 10° SSE 17:34:03 34° E 17:37:41 10° NNE
Cosmos 1151 Rocket 4.4 17:31:03 10° SE 17:34:09 20° E 17:37:16 10° NE
NOAA 12 4.3 17:30:08 10° S 17:35:27 81° WSW 17:40:49 10° NNW
COSMOS 2406 3.3 17:30:07 10° S 17:35:47 64° ESE 17:41:28 10° NNE
COSMOS 2455 3.1 17:31:45 10° S 17:37:30 49° ESE 17:43:18 10° NE
USA 234 3.3 17:32:20 10° ESE 17:38:45 63° NE 17:45:11 10° NW
Cosmos 1833 Rocket 2.7 17:36:42 10° SSW 17:42:19 87° WNW 17:47:59 10° NNE
ARGOS 4.1 17:38:10 10° ESE 17:42:33 26° ENE 17:46:56 10° NNE
NOSS 3-1 (A) 4.1 17:36:50 10° NNW 17:44:32 76° NE 17:53:26 10° SE
Cosmos 1340 Rocket 3.4 17:43:53 10° NNW 17:47:56 63° W 17:51:57 10° S
ISS -2.0 17:46:22 10° NNW 17:48:51 19° NNE 17:50:10 15° NE
SJ 16-02 4.4 17:46:40 10° NW 17:49:47 19° W 17:52:53 10° SW
CZ-2D R/B 3.5 17:46:21 10° SSE 17:50:01 46° ENE 17:53:42 10° N
PAYLOAD B 4.3 17:46:57 10° SSE 17:52:26 56° ENE 17:57:54 10° N
Cosmos 1809 Rocket 4.4 17:47:42 10° N 17:53:48 69° E 17:59:51 10° SSE
Lacrosse 5 rocket 3.4 17:54:47 10° N 17:55:57 11° NNE 17:56:30 11° NNE
SKYMED 2 4.1 17:54:15 10° NNE 17:58:20 38° E 18:02:22 10° SSE
ATLAS CENTAUR R/B 3.6 17:48:08 10° SW 17:59:16 60° NW 18:03:24 13° NNE
CZ-4B R/B 3.4 17:54:15 10° SE 17:59:22 44° ENE 18:04:27 10° N
CZ-2C R/B 3.7 17:59:31 10° S 18:00:50 11° SSE 18:02:09 10° SE
Cosmos 540 Rocket 3.5 17:57:01 10° SSW 18:02:07 84° WNW 18:07:16 10° NNE
Landsat 5 4.3 18:00:26 18° NE 18:02:36 28° E 18:06:04 10° SSE
Cosmos 1500 Rocket 4.4 17:58:18 10° NNW 18:02:38 53° W 18:06:53 10° S
SMAP 3.7 18:00:25 10° S 18:05:00 60° W 18:09:37 10° NNW
Cosmos 2360 4.2 17:59:50 10° NNW 18:05:36 81° ENE 18:11:19 10° SSE
Cosmos 1500 3.1 18:02:15 10° N 18:05:56 58° E 18:09:36 10° SSE
Cosmos 1814 Rocket 4.2 18:00:57 10° S 18:05:57 47° ESE 18:10:08 14° NE
CZ-2C R/B 2.7 18:01:21 10° NNE 18:06:24 50° E 18:11:24 10° S
Meteor 1-26 Rocket 4.3 18:03:32 10° S 18:09:28 87° E 18:15:32 10° N
Cosmos 1933 4.2 18:06:47 10° SSW 18:10:43 50° W 18:14:41 10° N
MOS 1-B 4.3 18:06:43 10° SSE 18:12:28 78° ENE 18:18:16 10° NNW
CZ-4C R/B 3.3 18:05:46 10° NNW 18:12:38 42° NE 18:20:10 11° ESE
Cosmos 1805 Rocket 3.8 18:09:55 10° NNW 18:14:15 70° W 18:18:32 10° S
Sich 1 2.9 18:10:27 10° N 18:14:46 90° SW 18:19:04 10° S
PSLV R/B 3.9 18:11:49 10° S 18:15:28 70° WSW 18:19:10 10° NNW
Cosmos 1898 Rocket 4.0 18:12:07 10° NNW 18:17:17 62° WSW 18:22:24 10° S
Cosmos 1092 Rocket 4.4 18:13:24 10° NNW 18:19:43 68° W 18:25:57 10° S
deb Chang Zheng 4 3.4 18:22:11 10° SSE 18:26:27 70° ENE 18:30:46 10° N
GPS 2-04 Rocket1 3.8 18:25:15 10° WSW 18:29:06 39° S 18:30:51 25° SE
Cosmos 2208 Rocket 4.1 18:25:41 10° S 18:30:54 56° ESE 18:33:46 27° NE
H-2A R/B 2.3 18:27:51 10° S 18:33:03 69° WSW 18:38:08 10° NNW
Cosmos 2142 Rocket 4.4 18:29:09 10° S 18:35:16 88° W 18:41:31 10° N
YAOGAN 3 4.4 18:31:15 10° SSE 18:35:35 74° ENE 18:39:56 10° N
Cosmos 1666 2.4 18:31:54 10° N 18:35:36 73° E 18:39:17 10° SSE
CZ-4C R/B 3.9 18:37:58 33° SSE 18:37:58 33° SSE 18:40:03 10° S
SJ-11-01 4.2 18:34:45 10° SSE 18:39:29 83° ENE 18:44:15 10° N
Meteor 1-14 Rocket 4.3 18:35:59 10° N 18:41:51 89° E 18:47:48 10° S
Meteor 2-16 Rocket 4.4 18:37:23 10° N 18:43:32 89° E 18:49:40 10° S
Cosmos 2322 Rocket 3.9 18:40:12 10° N 18:41:55 16° NNE 18:41:55 16° NNE
Cosmos 2279 Rocket 4.1 18:38:40 10° S 18:44:53 79° W 18:51:08 10° N
COSMO-SKYMED 1 3.0 18:42:21 11° N 18:46:25 60° WNW 18:50:41 10° SSW
Cosmos 1697 Rocket 4.0 18:42:08 10° NW 18:47:23 41° WSW 18:52:36 10° S
NOSS 2-2 (C) 4.5 18:42:46 10° NW 18:48:21 88° NE 18:56:13 10° SSE
Cosmos 1812 3.7 18:44:57 10° SSW 18:48:39 47° W 18:51:36 15° N
Cosmos 2369 4.2 18:45:27 10° NNW 18:51:06 61° WSW 18:56:42 10° S
Cosmos 1980 Rocket 2.3 18:45:48 10° NNW 18:51:29 78° WSW 18:57:05 10° SSE
Spot 2 4.5 18:47:29 10° SSE 18:52:28 56° ENE 18:57:30 10° N
Cosmos 2266 Rocket 4.0 18:46:31 10° N 18:52:47 56° E 18:59:03 10° SSE
Meteor 1-5 Rocket 4.4 18:47:32 10° N 18:53:33 83° W 18:59:25 10° S
SL-24 R/B - RUBIN 2 3.5 18:51:04 10° NW 18:55:32 78° WSW 18:56:47 45° SSE
Cosmos 921 Rocket 3.3 18:53:40 10° S 18:56:52 50° SSE 18:56:52 50° SSE
Cosmos 1633 Rocket 3.3 18:53:48 10° NNW 18:58:09 68° W 19:02:29 10° S
Meteor 2-15 Rocket 4.3 18:54:38 10° S 19:00:41 67° E 19:03:20 35° NNE
SL-16 R/B 3.5 18:56:32 10° N 18:59:20 25° NNE 18:59:20 25° NNE
Cosmos 2082 Rocket 3.2 18:56:45 10° SW 19:02:09 43° WNW 19:06:20 16° N
Okean O Rocket 2.4 19:00:32 10° S 19:04:52 52° W 19:09:15 10° NNW
Meteor 1-27 Rocket 4.4 19:08:16 10° S 19:11:40 37° SSE 19:11:40 37° SSE
Cosmos 2278 3.9 19:09:54 10° NNW 19:15:35 70° WSW 19:21:04 11° SSE
IRAS Rocket 4.2 19:21:48 70° S 19:21:48 70° S 19:26:42 10° SSW
USA 234 4.5 19:15:56 10° SSE 19:21:55 38° SW 19:27:56 10° WNW
ARGOS 4.3 19:17:27 10° S 19:22:33 42° W 19:27:41 10° NNW
COSMOS 2455 4.4 19:18:28 10° WSW 19:23:40 30° NW 19:27:05 18° N
Cosmos 1655 Rocket 4.0 19:17:54 10° N 19:24:18 80° W 19:30:39 10° S
ISS -0.7 19:22:44 10° NW 19:23:11 13° NW 19:23:11 13° NW
CZ-2C R/B 3.9 19:36:14 10° SW 19:37:08 15° SW 19:37:08 15° SW
CZ-4C R/B 3.6 19:54:08 10° NW 20:01:31 54° WSW 20:05:34 31° S
